Salerno / Pontecagnano Airport LIRI

Flugplatz Daten

Name: Salerno / Pontecagnano Airport

Ident: LIRI

Lat: 40,62039948

Long: 14,91129971

Platzhöhe: 119 ft

IataCode: QSR

City: Salerno

Homepage: http://www.aeroportosalerno.it/

Metar

2021/12/03 15:50
LIRI 031550Z 07011KT 030V090 8000 RA OVC030 11/06 Q1005

Taf

Gewünschte Webcam nicht vorhanden? Dann fügen Sie eine hinzu. Sie wird dann so schnell wie möglich freigeschaltet
Url: Title: